Flag for Germany Weather past 2 weeks in Seelze, Lower Saxony, Germany

57 °F

Light rain. Fog.

Feels Like: 57 °F
Forecast: 53 / 59 °F
Wind: 5 mph from East

Location: Hannover

Current Time: Oct 7, 2015 at 6:22:17 AM

Latest Report: Oct 7, 2015 at 5:50 AM

Visibility: 2 mi

Pressure: 29.74 "Hg

Humidity: 100%

Dew point: 57 °F

Location of SeelzeLocation

Historic Weather in Seelze — Graph


Seelze temperature yesterday

Maximum temperature yesterday: 63 °F (at 3:20 PM)
Minimum temperature yesterday: 54 °F (at 12:50 AM)
Average temperature yesterday: 57 °F

Past Weeks' High & Low Weather Summary

High66 °F (Oct 3, 4:50 PM)100% (Sep 22, 7:50 PM)30.69 "Hg (Sep 22, 7:50 PM)
Low36 °F (Oct 2, 3:50 AM)45% (Oct 2, 4:20 PM)29.53 "Hg (Sep 22, 4:50 PM)
Average53 °F86%30.17 "Hg
* Reported Sep 22 5:20 AM — Oct 7 5:20 AM, Seelze, Weather by CustomWeather, © 2015

Note: Actual official high and low records may vary slightly from our data, if they occured in-between our weather recording intervals... More about our weather records


Seelze weather history for previous 24 hours

Time TempWeatherWind HumidityBarometerVisibility
5:20 AM
Wed, Oct 7
57 °FFog.5 mph100%29.74 "Hg2 mi
4:50 AM57 °FFog.7 mph100%29.74 "Hg2 mi
4:20 AM59 °FFog.6 mph100%29.74 "Hg2 mi
3:50 AM59 °FLight rain. Fog.6 mph100%29.74 "Hg2 mi
3:20 AM57 °FFog.7 mph100%29.74 "Hg2 mi
2:50 AM59 °FFog.8 mph94%29.74 "Hg2 mi
2:20 AM59 °FFog.7 mph100%29.71 "Hg2 mi
1:50 AM59 °FFog.6 mph100%29.71 "Hg2 mi
1:20 AM59 °FFog.7 mph100%29.71 "Hg2 mi
12:50 AM59 °FFog.6 mph100%29.71 "Hg2 mi
11:50 PM
Tue, Oct 6
59 °FRain. Fog.9 mph100%29.71 "Hg1 mi
11:20 PM59 °FRain. Fog.8 mph100%29.71 "Hg1 mi
10:50 PM59 °FLight rain. Passing clouds.9 mph100%29.71 "Hg4 mi
10:20 PM59 °FPassing clouds.8 mph100%29.71 "Hg4 mi
9:50 PM59 °FLight rain. Partly cloudy.6 mph100%29.71 "Hg4 mi
9:20 PM61 °FLight rain. Partly cloudy.8 mph94%29.71 "HgN/A
8:50 PM59 °FClear.9 mph94%29.71 "Hg10 mi
8:20 PM59 °FClear.9 mph94%29.71 "Hg10 mi
7:50 PM59 °FPartly cloudy.7 mph94%29.71 "HgN/A
7:20 PM59 °FBroken clouds.7 mph94%29.68 "HgN/A
6:50 PM61 °FBroken clouds.9 mph88%29.68 "HgN/A
6:20 PM63 °FBroken clouds.7 mph83%29.68 "HgN/A
5:50 PM63 °FBroken clouds.12 mph88%29.68 "HgN/A
5:20 PM63 °FBroken clouds.8 mph88%29.68 "HgN/A
4:50 PM63 °FPartly sunny.9 mph88%29.68 "HgN/A
4:20 PM63 °FPartly sunny.10 mph83%29.68 "HgN/A
3:50 PM63 °FBroken clouds.12 mph83%29.68 "HgN/A
3:20 PM63 °FBroken clouds.13 mph83%29.68 "HgN/A
2:50 PM61 °FPartly sunny.9 mph88%29.68 "HgN/A
2:20 PM61 °FBroken clouds.9 mph88%29.68 "HgN/A
1:50 PM59 °FDrizzle. Broken clouds.10 mph94%29.68 "Hg5 mi
1:20 PM59 °FPartly sunny.10 mph94%29.68 "Hg5 mi
12:50 PM59 °FPartly sunny.12 mph88%29.68 "Hg5 mi
12:20 PM57 °FPartly sunny.10 mph94%29.68 "Hg5 mi
11:50 AM55 °FPartly sunny.12 mph100%29.68 "Hg4 mi
11:20 AM55 °FPartly sunny.14 mph100%29.68 "Hg4 mi
10:50 AM55 °FDrizzle. Fog.12 mph94%29.68 "Hg1 mi
10:20 AM55 °FDrizzle. Fog.14 mph94%29.68 "Hg1 mi
9:50 AM54 °FDrizzle. Fog.10 mph100%29.68 "Hg1 mi
9:20 AM54 °FDrizzle. Fog.12 mph100%29.68 "Hg1 mi
8:50 AM54 °FFog.13 mph100%29.68 "Hg3 mi
8:20 AM54 °FLight rain. Mostly cloudy.9 mph94%29.71 "Hg2 mi
7:50 AM54 °FLight rain. Passing clouds.10 mph94%29.71 "Hg2 mi
7:20 AM54 °FRain. Passing clouds.10 mph94%29.71 "Hg2 mi
6:20 AM54 °FLight rain. Mostly cloudy.12 mph94%29.71 "Hg5 mi
Weather by CustomWeather, © 2015

See weather overviewHow to use our weather pages